Time,TemperatureF,DewpointF,PressureIn,WindDirection,WindDirectionDegrees,WindSpeedMPH,WindSpeedGustMPH,Humidity,HourlyPrecipIn,Conditions,Clouds,dailyrainin,SoftwareType,DateUTC
2013-01-05 00:05:00,27.4,21.4,30.52,SSE,165,1.0,1.0,78,0.00,,,0.00,Wunderground v.1.15,2013-01-05 05:05:00,
2013-01-05 00:10:00,27.4,20.8,30.51,South,173,1.0,4.0,76,0.00,,,0.00,Wunderground v.1.15,2013-01-05 05:10:00,
2013-01-05 00:15:00,27.7,21.1,30.51,South,182,2.0,2.0,76,0.00,,,0.00,Wunderground v.1.15,2013-01-05 05:15:00,
2013-01-05 00:20:00,27.9,21.0,30.51,West,261,3.0,3.0,75,0.00,,,0.00,Wunderground v.1.15,2013-01-05 05:20:00,
2013-01-05 00:25:00,27.9,21.3,30.51,South,175,2.0,2.0,76,0.00,,,0.00,Wunderground v.1.15,2013-01-05 05:25:00,
2013-01-05 00:30:00,27.9,21.0,30.50,South,188,2.0,4.0,75,0.00,,,0.00,Wunderground v.1.15,2013-01-05 05:30:00,
2013-01-05 00:35:00,28.0,20.8,30.50,SSE,159,2.0,6.0,74,0.00,,,0.00,Wunderground v.1.15,2013-01-05 05:35:00,
2013-01-05 00:40:00,28.1,20.9,30.50,SSW,211,3.0,6.0,74,0.00,,,0.00,Wunderground v.1.15,2013-01-05 05:40:00,
2013-01-05 00:45:00,28.1,20.9,30.50,ESE,105,3.0,3.0,74,0.00,,,0.00,Wunderground v.1.15,2013-01-05 05:45:00,
2013-01-05 00:55:00,27.9,20.7,30.48,NNW,336,2.0,8.0,74,0.00,,,0.00,Wunderground v.1.15,2013-01-05 05:55:00,
2013-01-05 01:05:00,27.8,20.6,30.50,South,173,2.0,2.0,74,0.00,,,0.00,Wunderground v.1.15,2013-01-05 06:05:00,
2013-01-05 01:10:00,27.8,20.9,30.51,ESE,103,2.0,5.0,75,0.00,,,0.00,Wunderground v.1.15,2013-01-05 06:10:00,
2013-01-05 01:15:00,27.7,20.8,30.51,East,81,1.0,5.0,75,0.00,,,0.00,Wunderground v.1.15,2013-01-05 06:15:00,
2013-01-05 01:20:00,27.6,20.7,30.51,SSW,200,2.0,5.0,75,0.00,,,0.00,Wunderground v.1.15,2013-01-05 06:20:00,
2013-01-05 01:30:00,27.5,20.3,30.49,SSE,154,2.0,5.0,74,0.00,,,0.00,Wunderground v.1.15,2013-01-05 06:30:00,
2013-01-05 01:35:00,27.5,20.3,30.49,SSE,162,3.0,3.0,74,0.00,,,0.00,Wunderground v.1.15,2013-01-05 06:35:00,
2013-01-05 01:45:00,27.4,20.2,30.50,South,169,3.0,3.0,74,0.00,,,0.00,Wunderground v.1.15,2013-01-05 06:45:00,
2013-01-05 01:50:00,27.4,20.2,30.51,SSE,168,3.0,5.0,74,0.00,,,0.00,Wunderground v.1.15,2013-01-05 06:50:00,
2013-01-05 01:55:00,27.4,20.2,30.51,SSW,202,3.0,3.0,74,0.00,,,0.00,Wunderground v.1.15,2013-01-05 06:55:00,
2013-01-05 02:05:00,27.5,20.0,30.50,South,188,4.0,5.0,73,0.00,,,0.00,Wunderground v.1.15,2013-01-05 07:05:00,
2013-01-05 02:10:00,27.5,20.3,30.50,SSE,148,3.0,5.0,74,0.00,,,0.00,Wunderground v.1.15,2013-01-05 07:10:00,
2013-01-05 02:15:00,27.4,19.9,30.51,SW,229,3.0,3.0,73,0.00,,,0.00,Wunderground v.1.15,2013-01-05 07:15:00,
2013-01-05 02:20:00,27.5,20.0,30.51,SSE,160,3.0,5.0,73,0.00,,,0.00,Wunderground v.1.15,2013-01-05 07:20:00,
2013-01-05 02:25:00,27.5,20.0,30.51,SSE,160,2.0,5.0,73,0.00,,,0.00,Wunderground v.1.15,2013-01-05 07:25:00,
2013-01-05 02:30:00,27.4,19.9,30.50,South,177,3.0,5.0,73,0.00,,,0.00,Wunderground v.1.15,2013-01-05 07:30:00,
2013-01-05 02:35:00,27.5,20.0,30.51,SSE,161,4.0,4.0,73,0.00,,,0.00,Wunderground v.1.15,2013-01-05 07:35:00,
2013-01-05 02:40:00,27.6,20.1,30.51,South,175,4.0,5.0,73,0.00,,,0.00,Wunderground v.1.15,2013-01-05 07:40:00,
2013-01-05 02:45:00,27.6,20.1,30.51,South,180,4.0,4.0,73,0.00,,,0.00,Wunderground v.1.15,2013-01-05 07:45:00,
2013-01-05 02:50:00,27.5,20.3,30.51,SSW,198,2.0,5.0,74,0.00,,,0.00,Wunderground v.1.15,2013-01-05 07:50:00,
2013-01-05 03:05:00,27.2,20.6,30.50,South,177,3.0,3.0,76,0.00,,,0.00,Wunderground v.1.15,2013-01-05 08:05:00,
2013-01-05 03:10:00,27.0,20.4,30.51,SSW,194,2.0,4.0,76,0.00,,,0.00,Wunderground v.1.15,2013-01-05 08:10:00,
2013-01-05 03:15:00,27.0,20.4,30.50,South,171,2.0,5.0,76,0.00,,,0.00,Wunderground v.1.15,2013-01-05 08:15:00,
2013-01-05 03:20:00,26.9,20.3,30.50,SSW,213,2.0,6.0,76,0.00,,,0.00,Wunderground v.1.15,2013-01-05 08:20:00,
2013-01-05 03:25:00,27.0,20.4,30.50,SSW,205,4.0,5.0,76,0.00,,,0.00,Wunderground v.1.15,2013-01-05 08:25:00,
2013-01-05 03:30:00,27.1,20.2,30.50,SSW,200,5.0,5.0,75,0.00,,,0.00,Wunderground v.1.15,2013-01-05 08:30:00,
2013-01-05 03:35:00,27.1,20.2,30.50,South,180,4.0,5.0,75,0.00,,,0.00,Wunderground v.1.15,2013-01-05 08:35:00,
2013-01-05 03:40:00,27.2,20.0,30.51,SSW,193,4.0,5.0,74,0.00,,,0.00,Wunderground v.1.15,2013-01-05 08:40:00,
2013-01-05 03:45:00,27.4,20.2,30.51,SSW,198,4.0,4.0,74,0.00,,,0.00,Wunderground v.1.15,2013-01-05 08:45:00,
2013-01-05 03:50:00,27.5,19.7,30.51,SSW,205,3.0,6.0,72,0.00,,,0.00,Wunderground v.1.15,2013-01-05 08:50:00,
2013-01-05 04:05:00,27.8,19.6,30.50,South,189,3.0,5.0,71,0.00,,,0.00,Wunderground v.1.15,2013-01-05 09:05:00,
2013-01-05 04:10:00,27.7,19.5,30.50,SE,146,2.0,5.0,71,0.00,,,0.00,Wunderground v.1.15,2013-01-05 09:10:00,
2013-01-05 04:15:00,27.6,19.8,30.50,SW,225,2.0,5.0,72,0.00,,,0.00,Wunderground v.1.15,2013-01-05 09:15:00,
2013-01-05 04:20:00,27.6,19.4,30.50,South,188,2.0,5.0,71,0.00,,,0.00,Wunderground v.1.15,2013-01-05 09:20:00,
2013-01-05 04:25:00,27.6,19.4,30.50,SW,217,2.0,2.0,71,0.00,,,0.00,Wunderground v.1.15,2013-01-05 09:25:00,
2013-01-05 04:30:00,27.6,19.8,30.50,SW,226,2.0,3.0,72,0.00,,,0.00,Wunderground v.1.15,2013-01-05 09:30:00,
2013-01-05 04:35:00,27.6,19.1,30.50,SSE,165,2.0,5.0,70,0.00,,,0.00,Wunderground v.1.15,2013-01-05 09:35:00,
2013-01-05 04:40:00,27.6,19.1,30.50,South,190,2.0,5.0,70,0.00,,,0.00,Wunderground v.1.15,2013-01-05 09:40:00,
2013-01-05 04:45:00,27.6,19.4,30.49,SW,220,2.0,2.0,71,0.00,,,0.00,Wunderground v.1.15,2013-01-05 09:45:00,
2013-01-05 04:50:00,27.4,19.2,30.50,SSE,165,1.0,3.0,71,0.00,,,0.00,Wunderground v.1.15,2013-01-05 09:50:00,
2013-01-05 04:55:00,27.5,18.7,30.49,South,177,1.0,5.0,69,0.00,,,0.00,Wunderground v.1.15,2013-01-05 09:55:00,
2013-01-05 05:05:00,28.1,18.5,30.48,SSW,198,3.0,7.0,67,0.00,,,0.00,Wunderground v.1.15,2013-01-05 10:05:00,
2013-01-05 05:10:00,28.3,18.4,30.48,WNW,302,4.0,7.0,66,0.00,,,0.00,Wunderground v.1.15,2013-01-05 10:10:00,
2013-01-05 05:15:00,28.3,18.4,30.49,SSW,204,4.0,5.0,66,0.00,,,0.00,Wunderground v.1.15,2013-01-05 10:15:00,
2013-01-05 05:20:00,28.3,18.7,30.49,SSW,203,5.0,5.0,67,0.00,,,0.00,Wunderground v.1.15,2013-01-05 10:20:00,
2013-01-05 05:25:00,28.2,18.6,30.49,SSW,206,5.0,6.0,67,0.00,,,0.00,Wunderground v.1.15,2013-01-05 10:25:00,
2013-01-05 05:30:00,28.1,18.9,30.50,SSW,198,4.0,6.0,68,0.00,,,0.00,Wunderground v.1.15,2013-01-05 10:30:00,
2013-01-05 05:35:00,27.9,19.4,30.50,SSW,198,2.0,2.0,70,0.00,,,0.00,Wunderground v.1.15,2013-01-05 10:35:00,
2013-01-05 05:40:00,27.7,18.8,30.50,South,175,1.0,5.0,69,0.00,,,0.00,Wunderground v.1.15,2013-01-05 10:40:00,
2013-01-05 05:45:00,27.7,18.5,30.49,South,172,2.0,2.0,68,0.00,,,0.00,Wunderground v.1.15,2013-01-05 10:45:00,
2013-01-05 05:50:00,27.8,18.6,30.49,NE,55,2.0,5.0,68,0.00,,,0.00,Wunderground v.1.15,2013-01-05 10:50:00,
2013-01-05 05:55:00,28.0,18.5,30.49,SSE,157,2.0,5.0,67,0.00,,,0.00,Wunderground v.1.15,2013-01-05 10:55:00,
2013-01-05 06:05:00,28.2,19.0,30.49,NNW,345,2.0,2.0,68,0.00,,,0.00,Wunderground v.1.15,2013-01-05 11:05:00,
2013-01-05 06:10:00,28.1,18.5,30.49,SE,144,1.0,3.0,67,0.00,,,0.00,Wunderground v.1.15,2013-01-05 11:10:00,
2013-01-05 06:15:00,28.3,18.4,30.49,East,96,2.0,5.0,66,0.00,,,0.00,Wunderground v.1.15,2013-01-05 11:15:00,
2013-01-05 06:20:00,28.5,18.9,30.50,SSE,168,2.0,5.0,67,0.00,,,0.00,Wunderground v.1.15,2013-01-05 11:20:00,
2013-01-05 06:25:00,28.5,18.9,30.50,SW,221,2.0,2.0,67,0.00,,,0.00,Wunderground v.1.15,2013-01-05 11:25:00,
2013-01-05 06:35:00,28.4,18.8,30.50,South,172,1.0,1.0,67,0.00,,,0.00,Wunderground v.1.15,2013-01-05 11:35:00,
2013-01-05 06:40:00,28.3,19.1,30.50,NNE,19,1.0,5.0,68,0.00,,,0.00,Wunderground v.1.15,2013-01-05 11:40:00,
2013-01-05 06:45:00,28.0,19.5,30.51,NE,35,1.0,5.0,70,0.00,,,0.00,Wunderground v.1.15,2013-01-05 11:45:00,
2013-01-05 06:50:00,27.9,18.7,30.51,SW,214,1.0,5.0,68,0.00,,,0.00,Wunderground v.1.15,2013-01-05 11:50:00,
2013-01-05 06:55:00,27.8,18.9,30.51,South,188,1.0,1.0,69,0.00,,,0.00,Wunderground v.1.15,2013-01-05 11:55:00,
2013-01-05 07:05:00,27.7,19.2,30.51,South,189,1.0,5.0,70,0.00,,,0.00,Wunderground v.1.15,2013-01-05 12:05:00,
2013-01-05 07:10:00,27.8,18.6,30.52,South,179,2.0,5.0,68,0.00,,,0.00,Wunderground v.1.15,2013-01-05 12:10:00,
2013-01-05 07:20:00,28.0,18.8,30.52,NNE,32,1.0,5.0,68,0.00,,,0.00,Wunderground v.1.15,2013-01-05 12:20:00,
2013-01-05 07:25:00,28.1,18.9,30.52,NNE,32,0.0,5.0,68,0.00,,,0.00,Wunderground v.1.15,2013-01-05 12:25:00,
2013-01-05 07:30:00,27.9,19.0,30.52,NNE,32,0.0,5.0,69,0.00,,,0.00,Wunderground v.1.15,2013-01-05 12:30:00,
2013-01-05 07:35:00,27.8,19.3,30.52,NNE,32,0.0,5.0,70,0.00,,,0.00,Wunderground v.1.15,2013-01-05 12:35:00,
2013-01-05 07:40:00,27.7,19.2,30.53,NNE,32,0.0,5.0,70,0.00,,,0.00,Wunderground v.1.15,2013-01-05 12:40:00,
2013-01-05 07:45:00,27.6,19.1,30.53,NNE,32,0.0,5.0,70,0.00,,,0.00,Wunderground v.1.15,2013-01-05 12:45:00,
2013-01-05 07:50:00,27.6,19.1,30.53,NNE,32,0.0,5.0,70,0.00,,,0.00,Wunderground v.1.15,2013-01-05 12:50:00,
2013-01-05 07:55:00,27.7,19.2,30.53,NNE,32,0.0,5.0,70,0.00,,,0.00,Wunderground v.1.15,2013-01-05 12:55:00,
2013-01-05 08:05:00,27.8,19.6,30.53,NNE,32,0.0,5.0,71,0.00,,,0.00,Wunderground v.1.15,2013-01-05 13:05:00,
2013-01-05 08:10:00,28.0,19.1,30.54,NNE,32,0.0,5.0,69,0.00,,,0.00,Wunderground v.1.15,2013-01-05 13:10:00,
2013-01-05 08:20:00,28.3,19.4,30.55,NNE,32,0.0,5.0,69,0.00,,,0.00,Wunderground v.1.15,2013-01-05 13:20:00,
2013-01-05 08:25:00,28.5,19.6,30.54,NNE,32,0.0,5.0,69,0.00,,,0.00,Wunderground v.1.15,2013-01-05 13:25:00,
2013-01-05 08:30:00,28.6,20.1,30.54,NNE,32,0.0,5.0,70,0.00,,,0.00,Wunderground v.1.15,2013-01-05 13:30:00,
2013-01-05 08:35:00,28.6,20.1,30.54,NNE,32,0.0,5.0,70,0.00,,,0.00,Wunderground v.1.15,2013-01-05 13:35:00,
2013-01-05 08:45:00,28.7,20.1,30.54,SSW,202,0.0,5.0,70,0.00,,,0.00,Wunderground v.1.15,2013-01-05 13:45:00,
2013-01-05 08:50:00,28.9,19.7,30.54,NNE,20,0.0,5.0,68,0.00,,,0.00,Wunderground v.1.15,2013-01-05 13:50:00,
2013-01-05 09:05:00,29.1,20.5,30.53,SSW,196,0.0,5.0,70,0.00,,,0.00,Wunderground v.1.15,2013-01-05 14:05:00,
2013-01-05 09:10:00,29.0,20.8,30.53,SSW,196,0.0,5.0,71,0.00,,,0.00,Wunderground v.1.15,2013-01-05 14:10:00,
2013-01-05 09:20:00,29.3,21.1,30.53,NNW,337,1.0,5.0,71,0.00,,,0.00,Wunderground v.1.15,2013-01-05 14:20:00,
2013-01-05 09:25:00,29.6,20.7,30.53,South,186,1.0,1.0,69,0.00,,,0.00,Wunderground v.1.15,2013-01-05 14:25:00,
2013-01-05 09:30:00,30.0,20.7,30.53,South,186,1.0,5.0,68,0.00,,,0.00,Wunderground v.1.15,2013-01-05 14:30:00,
2013-01-05 09:35:00,30.4,21.4,30.53,South,186,0.0,5.0,69,0.00,,,0.00,Wunderground v.1.15,2013-01-05 14:35:00,
2013-01-05 09:40:00,30.8,20.8,30.53,South,186,0.0,5.0,66,0.00,,,0.00,Wunderground v.1.15,2013-01-05 14:40:00,
2013-01-05 09:45:00,31.2,20.4,30.53,South,186,1.0,1.0,64,0.00,,,0.00,Wunderground v.1.15,2013-01-05 14:45:00,
2013-01-05 09:50:00,31.7,20.5,30.53,WSW,242,1.0,5.0,63,0.00,,,0.00,Wunderground v.1.15,2013-01-05 14:50:00,
2013-01-05 10:05:00,32.5,20.1,30.53,SE,140,1.0,5.0,60,0.00,,,0.00,Wunderground v.1.15,2013-01-05 15:05:00,
2013-01-05 10:10:00,32.7,19.9,30.53,SE,140,0.0,5.0,59,0.00,,,0.00,Wunderground v.1.15,2013-01-05 15:10:00,
2013-01-05 10:15:00,33.0,20.6,30.53,SE,144,1.0,1.0,60,0.00,,,0.00,Wunderground v.1.15,2013-01-05 15:15:00,
2013-01-05 10:20:00,33.3,20.5,30.53,SE,144,1.0,5.0,59,0.00,,,0.00,Wunderground v.1.15,2013-01-05 15:20:00,
2013-01-05 10:25:00,33.7,20.9,30.53,SE,144,0.0,5.0,59,0.00,,,0.00,Wunderground v.1.15,2013-01-05 15:25:00,
2013-01-05 10:30:00,34.0,21.2,30.52,SE,144,0.0,5.0,59,0.00,,,0.00,Wunderground v.1.15,2013-01-05 15:30:00,
2013-01-05 10:35:00,34.6,20.9,30.52,SE,144,0.0,5.0,57,0.00,,,0.00,Wunderground v.1.15,2013-01-05 15:35:00,
2013-01-05 10:40:00,35.0,20.9,30.52,SE,144,0.0,5.0,56,0.00,,,0.00,Wunderground v.1.15,2013-01-05 15:40:00,
2013-01-05 10:45:00,35.7,21.9,30.52,SE,144,0.0,5.0,57,0.00,,,0.00,Wunderground v.1.15,2013-01-05 15:45:00,
2013-01-05 10:50:00,36.2,21.1,30.52,SE,144,0.0,5.0,54,0.00,,,0.00,Wunderground v.1.15,2013-01-05 15:50:00,
2013-01-05 10:55:00,36.6,21.9,30.52,SE,144,1.0,5.0,55,0.00,,,0.00,Wunderground v.1.15,2013-01-05 15:55:00,
2013-01-05 11:05:00,37.1,22.4,30.52,SE,144,1.0,5.0,55,0.00,,,0.00,Wunderground v.1.15,2013-01-05 16:05:00,
2013-01-05 11:10:00,37.5,22.3,30.51,SE,144,1.0,5.0,54,0.00,,,0.00,Wunderground v.1.15,2013-01-05 16:10:00,
2013-01-05 11:15:00,37.8,22.6,30.51,SE,144,1.0,5.0,54,0.00,,,0.00,Wunderground v.1.15,2013-01-05 16:15:00,
2013-01-05 11:20:00,38.1,22.9,30.50,SE,144,1.0,5.0,54,0.00,,,0.00,Wunderground v.1.15,2013-01-05 16:20:00,
2013-01-05 11:25:00,38.5,23.7,30.50,SSW,200,2.0,2.0,55,0.00,,,0.00,Wunderground v.1.15,2013-01-05 16:25:00,
2013-01-05 11:30:00,38.7,23.9,30.50,SSW,200,2.0,5.0,55,0.00,,,0.00,Wunderground v.1.15,2013-01-05 16:30:00,
2013-01-05 11:35:00,39.1,23.8,30.49,SSW,199,1.0,5.0,54,0.00,,,0.00,Wunderground v.1.15,2013-01-05 16:35:00,
2013-01-05 11:40:00,39.5,24.2,30.48,ESE,119,1.0,5.0,54,0.00,,,0.00,Wunderground v.1.15,2013-01-05 16:40:00,
2013-01-05 11:45:00,39.8,23.1,30.48,SSE,147,2.0,5.0,51,0.00,,,0.00,Wunderground v.1.15,2013-01-05 16:45:00,
2013-01-05 11:50:00,39.6,22.9,30.47,SE,143,2.0,5.0,51,0.00,,,0.00,Wunderground v.1.15,2013-01-05 16:50:00,
2013-01-05 11:55:00,40.0,23.8,30.47,SE,140,2.0,5.0,52,0.00,,,0.00,Wunderground v.1.15,2013-01-05 16:55:00,
2013-01-05 12:05:00,40.9,24.1,30.46,SSE,153,2.0,5.0,51,0.00,,,0.00,Wunderground v.1.15,2013-01-05 17:05:00,
2013-01-05 12:10:00,40.8,24.1,30.46,SSE,155,2.0,5.0,51,0.00,,,0.00,Wunderground v.1.15,2013-01-05 17:10:00,
2013-01-05 12:15:00,41.3,24.0,30.46,South,170,2.0,2.0,50,0.00,,,0.00,Wunderground v.1.15,2013-01-05 17:15:00,
2013-01-05 12:20:00,41.6,23.8,30.46,South,169,1.0,3.0,49,0.00,,,0.00,Wunderground v.1.15,2013-01-05 17:20:00,
2013-01-05 12:25:00,41.6,24.3,30.45,ESE,111,1.0,5.0,50,0.00,,,0.00,Wunderground v.1.15,2013-01-05 17:25:00,
2013-01-05 12:30:00,41.7,23.4,30.45,South,172,2.0,5.0,48,0.00,,,0.00,Wunderground v.1.15,2013-01-05 17:30:00,
2013-01-05 12:35:00,42.2,24.4,30.45,East,90,2.0,2.0,49,0.00,,,0.00,Wunderground v.1.15,2013-01-05 17:35:00,
2013-01-05 12:40:00,42.3,23.0,30.45,SSE,155,2.0,5.0,46,0.00,,,0.00,Wunderground v.1.15,2013-01-05 17:40:00,
2013-01-05 12:45:00,42.5,22.1,30.45,SE,132,2.0,2.0,44,0.00,,,0.00,Wunderground v.1.15,2013-01-05 17:45:00,
2013-01-05 12:50:00,42.6,23.2,30.45,SW,227,2.0,3.0,46,0.00,,,0.00,Wunderground v.1.15,2013-01-05 17:50:00,
2013-01-05 12:55:00,42.8,22.9,30.45,ESE,122,2.0,5.0,45,0.00,,,0.00,Wunderground v.1.15,2013-01-05 17:55:00,
2013-01-05 13:05:00,43.0,23.1,30.44,South,178,2.0,5.0,45,0.00,,,0.00,Wunderground v.1.15,2013-01-05 18:05:00,
2013-01-05 13:10:00,43.1,23.2,30.44,West,259,2.0,5.0,45,0.00,,,0.00,Wunderground v.1.15,2013-01-05 18:10:00,
2013-01-05 13:15:00,43.4,23.4,30.44,ESE,113,2.0,2.0,45,0.00,,,0.00,Wunderground v.1.15,2013-01-05 18:15:00,
2013-01-05 13:20:00,44.1,24.6,30.43,South,171,1.0,5.0,46,0.00,,,0.00,Wunderground v.1.15,2013-01-05 18:20:00,
2013-01-05 13:25:00,44.8,24.2,30.43,South,178,1.0,5.0,44,0.00,,,0.00,Wunderground v.1.15,2013-01-05 18:25:00,
2013-01-05 13:30:00,44.9,24.3,30.43,SE,129,2.0,5.0,44,0.00,,,0.00,Wunderground v.1.15,2013-01-05 18:30:00,
2013-01-05 13:35:00,45.0,23.8,30.43,ESE,105,2.0,5.0,43,0.00,,,0.00,Wunderground v.1.15,2013-01-05 18:35:00,
2013-01-05 13:40:00,45.0,24.4,30.42,South,184,2.0,5.0,44,0.00,,,0.00,Wunderground v.1.15,2013-01-05 18:40:00,
2013-01-05 13:45:00,45.1,23.9,30.42,NE,48,2.0,5.0,43,0.00,,,0.00,Wunderground v.1.15,2013-01-05 18:45:00,
2013-01-05 13:55:00,45.2,23.4,30.42,SSE,148,2.0,2.0,42,0.00,,,0.00,Wunderground v.1.15,2013-01-05 18:55:00,
2013-01-05 14:05:00,45.4,24.2,30.42,SE,131,1.0,5.0,43,0.00,,,0.00,Wunderground v.1.15,2013-01-05 19:05:00,
2013-01-05 14:10:00,45.4,24.2,30.41,ENE,73,2.0,5.0,43,0.00,,,0.00,Wunderground v.1.15,2013-01-05 19:10:00,
2013-01-05 14:20:00,45.7,24.5,30.41,SSE,159,2.0,5.0,43,0.00,,,0.00,Wunderground v.1.15,2013-01-05 19:20:00,
2013-01-05 14:30:00,46.2,24.9,30.41,SW,218,2.0,5.0,43,0.00,,,0.00,Wunderground v.1.15,2013-01-05 19:30:00,
2013-01-05 14:35:00,46.3,25.0,30.41,South,190,2.0,2.0,43,0.00,,,0.00,Wunderground v.1.15,2013-01-05 19:35:00,
2013-01-05 14:40:00,46.3,23.9,30.41,South,179,2.0,5.0,41,0.00,,,0.00,Wunderground v.1.15,2013-01-05 19:40:00,
2013-01-05 14:45:00,46.5,24.0,30.42,ESE,123,1.0,1.0,41,0.00,,,0.00,Wunderground v.1.15,2013-01-05 19:45:00,
2013-01-05 14:50:00,46.8,24.3,30.41,SE,132,0.0,3.0,41,0.00,,,0.00,Wunderground v.1.15,2013-01-05 19:50:00,
2013-01-05 14:55:00,46.7,24.2,30.42,ENE,58,1.0,1.0,41,0.00,,,0.00,Wunderground v.1.15,2013-01-05 19:55:00,
2013-01-05 15:05:00,46.5,23.4,30.41,ESE,109,1.0,5.0,40,0.00,,,0.00,Wunderground v.1.15,2013-01-05 20:05:00,
2013-01-05 15:10:00,46.1,22.5,30.41,SE,146,1.0,5.0,39,0.00,,,0.00,Wunderground v.1.15,2013-01-05 20:10:00,
2013-01-05 15:15:00,45.8,22.2,30.41,SE,132,1.0,5.0,39,0.00,,,0.00,Wunderground v.1.15,2013-01-05 20:15:00,
2013-01-05 15:20:00,45.4,22.5,30.40,SSW,209,2.0,5.0,40,0.00,,,0.00,Wunderground v.1.15,2013-01-05 20:20:00,
2013-01-05 15:25:00,45.2,22.3,30.40,WSW,250,2.0,2.0,40,0.00,,,0.00,Wunderground v.1.15,2013-01-05 20:25:00,
2013-01-05 15:30:00,45.2,22.3,30.40,South,183,1.0,5.0,40,0.00,,,0.00,Wunderground v.1.15,2013-01-05 20:30:00,
2013-01-05 15:35:00,45.4,23.0,30.40,SE,134,0.0,5.0,41,0.00,,,0.00,Wunderground v.1.15,2013-01-05 20:35:00,
2013-01-05 15:40:00,45.3,22.4,30.40,East,86,1.0,5.0,40,0.00,,,0.00,Wunderground v.1.15,2013-01-05 20:40:00,
2013-01-05 15:45:00,45.1,22.2,30.40,ESE,111,1.0,1.0,40,0.00,,,0.00,Wunderground v.1.15,2013-01-05 20:45:00,
2013-01-05 15:50:00,45.0,22.7,30.40,West,272,1.0,2.0,41,0.00,,,0.00,Wunderground v.1.15,2013-01-05 20:50:00,
2013-01-05 15:55:00,45.0,22.7,30.40,WNW,303,1.0,1.0,41,0.00,,,0.00,Wunderground v.1.15,2013-01-05 20:55:00,
2013-01-05 16:05:00,44.2,22.5,30.40,NNE,19,1.0,5.0,42,0.00,,,0.00,Wunderground v.1.15,2013-01-05 21:05:00,
2013-01-05 16:15:00,43.4,22.4,30.41,East,92,2.0,5.0,43,0.00,,,0.00,Wunderground v.1.15,2013-01-05 21:15:00,
2013-01-05 16:20:00,43.3,22.8,30.42,ESE,122,1.0,5.0,44,0.00,,,0.00,Wunderground v.1.15,2013-01-05 21:20:00,
2013-01-05 16:25:00,43.1,23.2,30.42,ESE,116,1.0,5.0,45,0.00,,,0.00,Wunderground v.1.15,2013-01-05 21:25:00,
2013-01-05 16:30:00,42.8,22.9,30.42,ESE,122,1.0,5.0,45,0.00,,,0.00,Wunderground v.1.15,2013-01-05 21:30:00,
2013-01-05 16:35:00,42.6,23.2,30.41,SE,134,2.0,5.0,46,0.00,,,0.00,Wunderground v.1.15,2013-01-05 21:35:00,
2013-01-05 16:40:00,42.4,23.1,30.42,ESE,117,1.0,5.0,46,0.00,,,0.00,Wunderground v.1.15,2013-01-05 21:40:00,
2013-01-05 16:45:00,42.2,23.4,30.41,ESE,104,2.0,5.0,47,0.00,,,0.00,Wunderground v.1.15,2013-01-05 21:45:00,
2013-01-05 16:50:00,42.0,23.2,30.41,ENE,68,2.0,5.0,47,0.00,,,0.00,Wunderground v.1.15,2013-01-05 21:50:00,
2013-01-05 16:55:00,41.9,23.1,30.41,ESE,106,2.0,5.0,47,0.00,,,0.00,Wunderground v.1.15,2013-01-05 21:55:00,
2013-01-05 17:05:00,41.6,23.3,30.41,ESE,115,1.0,5.0,48,0.00,,,0.00,Wunderground v.1.15,2013-01-05 22:05:00,
2013-01-05 17:10:00,41.5,23.7,30.41,SSE,155,1.0,5.0,49,0.00,,,0.00,Wunderground v.1.15,2013-01-05 22:10:00,
2013-01-05 17:15:00,41.3,23.6,30.41,SSE,158,1.0,5.0,49,0.00,,,0.00,Wunderground v.1.15,2013-01-05 22:15:00,
2013-01-05 17:20:00,41.1,23.4,30.41,ESE,107,1.0,5.0,49,0.00,,,0.00,Wunderground v.1.15,2013-01-05 22:20:00,
2013-01-05 17:25:00,40.8,23.6,30.41,East,90,2.0,2.0,50,0.00,,,0.00,Wunderground v.1.15,2013-01-05 22:25:00,
2013-01-05 17:30:00,40.7,23.5,30.41,NNE,22,1.0,5.0,50,0.00,,,0.00,Wunderground v.1.15,2013-01-05 22:30:00,
2013-01-05 17:35:00,40.5,23.8,30.41,East,91,1.0,1.0,51,0.00,,,0.00,Wunderground v.1.15,2013-01-05 22:35:00,
2013-01-05 17:40:00,40.4,23.7,30.41,East,85,1.0,5.0,51,0.00,,,0.00,Wunderground v.1.15,2013-01-05 22:40:00,
2013-01-05 17:45:00,40.2,23.5,30.41,ESE,116,1.0,1.0,51,0.00,,,0.00,Wunderground v.1.15,2013-01-05 22:45:00,
2013-01-05 17:50:00,40.1,23.4,30.41,SSE,156,1.0,2.0,51,0.00,,,0.00,Wunderground v.1.15,2013-01-05 22:50:00,
2013-01-05 17:55:00,40.0,23.8,30.41,ESE,114,2.0,2.0,52,0.00,,,0.00,Wunderground v.1.15,2013-01-05 22:55:00,
2013-01-05 18:05:00,39.8,23.6,30.41,ESE,106,1.0,1.0,52,0.00,,,0.00,Wunderground v.1.15,2013-01-05 23:05:00,
2013-01-05 18:10:00,39.7,24.0,30.41,ESE,119,1.0,3.0,53,0.00,,,0.00,Wunderground v.1.15,2013-01-05 23:10:00,
2013-01-05 18:15:00,39.6,23.9,30.41,South,185,1.0,1.0,53,0.00,,,0.00,Wunderground v.1.15,2013-01-05 23:15:00,
2013-01-05 18:25:00,39.4,23.7,30.42,SSE,154,1.0,5.0,53,0.00,,,0.00,Wunderground v.1.15,2013-01-05 23:25:00,
2013-01-05 18:30:00,39.3,23.6,30.41,ESE,122,1.0,5.0,53,0.00,,,0.00,Wunderground v.1.15,2013-01-05 23:30:00,
2013-01-05 18:35:00,39.3,23.6,30.42,ESE,119,1.0,1.0,53,0.00,,,0.00,Wunderground v.1.15,2013-01-05 23:35:00,
2013-01-05 18:40:00,39.2,23.9,30.42,SE,132,1.0,5.0,54,0.00,,,0.00,Wunderground v.1.15,2013-01-05 23:40:00,
2013-01-05 18:45:00,39.2,23.9,30.43,SE,146,1.0,5.0,54,0.00,,,0.00,Wunderground v.1.15,2013-01-05 23:45:00,
2013-01-05 18:55:00,39.2,23.9,30.42,South,183,2.0,2.0,54,0.00,,,0.00,Wunderground v.1.15,2013-01-05 23:55:00,
2013-01-05 19:05:00,39.1,24.3,30.41,SW,232,1.0,5.0,55,0.00,,,0.00,Wunderground v.1.15,2013-01-06 00:05:00,
2013-01-05 19:10:00,38.9,24.9,30.41,South,184,1.0,5.0,57,0.00,,,0.00,Wunderground v.1.15,2013-01-06 00:10:00,
2013-01-05 19:15:00,38.8,24.9,30.41,SSE,161,1.0,1.0,57,0.00,,,0.00,Wunderground v.1.15,2013-01-06 00:15:00,
2013-01-05 19:20:00,38.9,24.9,30.42,SSW,196,2.0,3.0,57,0.00,,,0.00,Wunderground v.1.15,2013-01-06 00:20:00,
2013-01-05 19:25:00,38.9,25.4,30.42,South,175,2.0,5.0,58,0.00,,,0.00,Wunderground v.1.15,2013-01-06 00:25:00,
2013-01-05 19:30:00,39.0,25.5,30.42,SSE,157,1.0,5.0,58,0.00,,,0.00,Wunderground v.1.15,2013-01-06 00:30:00,
2013-01-05 19:35:00,39.0,25.9,30.42,SSE,157,1.0,1.0,59,0.00,,,0.00,Wunderground v.1.15,2013-01-06 00:35:00,
2013-01-05 19:40:00,39.0,25.5,30.42,SW,214,1.0,5.0,58,0.00,,,0.00,Wunderground v.1.15,2013-01-06 00:40:00,
2013-01-05 19:45:00,39.0,25.5,30.42,SE,143,2.0,2.0,58,0.00,,,0.00,Wunderground v.1.15,2013-01-06 00:45:00,
2013-01-05 19:50:00,38.9,25.8,30.42,SSW,195,2.0,5.0,59,0.00,,,0.00,Wunderground v.1.15,2013-01-06 00:50:00,
2013-01-05 19:55:00,38.9,25.8,30.42,SSE,158,2.0,2.0,59,0.00,,,0.00,Wunderground v.1.15,2013-01-06 00:55:00,
2013-01-05 20:05:00,38.9,25.8,30.42,SSE,151,2.0,5.0,59,0.00,,,0.00,Wunderground v.1.15,2013-01-06 01:05:00,
2013-01-05 20:10:00,38.8,26.1,30.41,SSE,151,1.0,5.0,60,0.00,,,0.00,Wunderground v.1.15,2013-01-06 01:10:00,
2013-01-05 20:15:00,38.7,26.0,30.42,SE,127,1.0,5.0,60,0.00,,,0.00,Wunderground v.1.15,2013-01-06 01:15:00,
2013-01-05 20:20:00,38.6,26.3,30.42,SE,130,1.0,5.0,61,0.00,,,0.00,Wunderground v.1.15,2013-01-06 01:20:00,
2013-01-05 20:25:00,38.5,26.6,30.41,SE,129,1.0,5.0,62,0.00,,,0.00,Wunderground v.1.15,2013-01-06 01:25:00,
2013-01-05 20:30:00,38.3,26.4,30.41,SE,136,2.0,5.0,62,0.00,,,0.00,Wunderground v.1.15,2013-01-06 01:30:00,
2013-01-05 20:35:00,38.2,26.7,30.41,South,188,1.0,5.0,63,0.00,,,0.00,Wunderground v.1.15,2013-01-06 01:35:00,
2013-01-05 20:40:00,38.0,26.5,30.41,South,170,1.0,5.0,63,0.00,,,0.00,Wunderground v.1.15,2013-01-06 01:40:00,
2013-01-05 20:45:00,37.9,26.8,30.42,SSE,157,1.0,5.0,64,0.00,,,0.00,Wunderground v.1.15,2013-01-06 01:45:00,
2013-01-05 20:50:00,37.9,26.8,30.42,SSE,157,2.0,5.0,64,0.00,,,0.00,Wunderground v.1.15,2013-01-06 01:50:00,
2013-01-05 20:55:00,37.8,26.7,30.42,SSW,204,2.0,2.0,64,0.00,,,0.00,Wunderground v.1.15,2013-01-06 01:55:00,
2013-01-05 21:05:00,37.8,26.7,30.43,SSW,192,2.0,5.0,64,0.00,,,0.00,Wunderground v.1.15,2013-01-06 02:05:00,
2013-01-05 21:10:00,37.8,26.3,30.43,South,188,3.0,6.0,63,0.00,,,0.00,Wunderground v.1.15,2013-01-06 02:10:00,
2013-01-05 21:15:00,37.8,26.7,30.43,SW,225,4.0,4.0,64,0.00,,,0.00,Wunderground v.1.15,2013-01-06 02:15:00,
2013-01-05 21:20:00,37.7,26.6,30.42,South,179,4.0,5.0,64,0.00,,,0.00,Wunderground v.1.15,2013-01-06 02:20:00,
2013-01-05 21:25:00,37.7,26.6,30.42,South,169,3.0,3.0,64,0.00,,,0.00,Wunderground v.1.15,2013-01-06 02:25:00,
2013-01-05 21:30:00,37.7,27.0,30.42,SSW,198,2.0,5.0,65,0.00,,,0.00,Wunderground v.1.15,2013-01-06 02:30:00,
2013-01-05 21:35:00,37.6,26.5,30.42,South,180,2.0,2.0,64,0.00,,,0.00,Wunderground v.1.15,2013-01-06 02:35:00,
2013-01-05 21:45:00,37.4,26.7,30.41,SE,145,1.0,5.0,65,0.00,,,0.00,Wunderground v.1.15,2013-01-06 02:45:00,
2013-01-05 21:50:00,37.4,26.7,30.41,SW,234,2.0,5.0,65,0.00,,,0.00,Wunderground v.1.15,2013-01-06 02:50:00,
2013-01-05 21:55:00,37.3,26.6,30.40,SSE,157,2.0,2.0,65,0.00,,,0.00,Wunderground v.1.15,2013-01-06 02:55:00,
2013-01-05 22:05:00,37.2,26.9,30.39,SSW,212,1.0,1.0,66,0.00,,,0.00,Wunderground v.1.15,2013-01-06 03:05:00,
2013-01-05 22:10:00,37.1,26.8,30.38,SSW,212,0.0,2.0,66,0.00,,,0.00,Wunderground v.1.15,2013-01-06 03:10:00,
2013-01-05 22:20:00,37.0,26.7,30.38,South,171,1.0,5.0,66,0.00,,,0.00,Wunderground v.1.15,2013-01-06 03:20:00,
2013-01-05 22:25:00,37.0,27.1,30.38,South,171,1.0,1.0,67,0.00,,,0.00,Wunderground v.1.15,2013-01-06 03:25:00,
2013-01-05 22:30:00,37.0,27.1,30.38,South,171,0.0,5.0,67,0.00,,,0.00,Wunderground v.1.15,2013-01-06 03:30:00,
2013-01-05 22:35:00,37.0,27.1,30.38,South,171,0.0,5.0,67,0.00,,,0.00,Wunderground v.1.15,2013-01-06 03:35:00,
2013-01-05 22:40:00,37.1,27.2,30.38,South,171,0.0,5.0,67,0.00,,,0.00,Wunderground v.1.15,2013-01-06 03:40:00,
2013-01-05 22:50:00,37.4,27.4,30.38,South,171,0.0,5.0,67,0.00,,,0.00,Wunderground v.1.15,2013-01-06 03:50:00,
2013-01-05 22:55:00,37.4,27.4,30.38,South,171,0.0,5.0,67,0.00,,,0.00,Wunderground v.1.15,2013-01-06 03:55:00,
2013-01-05 23:05:00,37.5,29.3,30.38,South,171,0.0,5.0,72,0.00,,,0.00,Wunderground v.1.15,2013-01-06 04:05:00,
2013-01-05 23:10:00,37.5,29.3,30.38,South,171,0.0,5.0,72,0.00,,,0.00,Wunderground v.1.15,2013-01-06 04:10:00,
2013-01-05 23:20:00,37.3,29.4,30.38,South,172,0.0,5.0,73,0.00,,,0.00,Wunderground v.1.15,2013-01-06 04:20:00,
2013-01-05 23:25:00,37.0,30.1,30.38,South,171,0.0,5.0,76,0.00,,,0.00,Wunderground v.1.15,2013-01-06 04:25:00,
2013-01-05 23:30:00,36.8,28.6,30.38,South,171,1.0,5.0,72,0.00,,,0.00,Wunderground v.1.15,2013-01-06 04:30:00,
2013-01-05 23:35:00,36.8,29.6,30.37,SW,225,1.0,1.0,75,0.00,,,0.00,Wunderground v.1.15,2013-01-06 04:35:00,
2013-01-05 23:40:00,36.7,28.9,30.37,South,169,1.0,5.0,73,0.00,,,0.00,Wunderground v.1.15,2013-01-06 04:40:00,
2013-01-05 23:45:00,36.9,28.0,30.37,SE,130,1.0,5.0,70,0.00,,,0.00,Wunderground v.1.15,2013-01-06 04:45:00,
2013-01-05 23:50:00,37.2,27.6,30.36,SE,140,1.0,5.0,68,0.00,,,0.00,Wunderground v.1.15,2013-01-06 04:50:00,
2013-01-05 23:55:00,37.3,28.1,30.36,SSW,207,2.0,5.0,69,0.00,,,0.00,Wunderground v.1.15,2013-01-06 04:55:00,